Temperature
13 13 13 13 13 13 13 13 12 12 12 12 12 12 11 11 11 11 11 11 11 11 11 11 10 10 10 10 10 10 10 10 10 10 10 10 10 10 10 10 10 10 10
13 13 13 13 13 12 12 12 12 12 12 12 11 11 11 11 10 10 11 11 11 11 10 10 10 10 10 10 10 10 10 10 10 10 10 10 10 10 10 9 9 10 10
12 12 12 12 12 12 12 12 12 12 11 11 11 11 11 10 10 10 10 10 10 10 10 10 10 10 9 9 9 9 9 9 9 9 9 9 9 9 9 9 9 9 9
12 12 12 12 12 12 12 11 11 11 11 11 11 11 10 10 10 10 10 10 10 10 10 10 9 9 9 9 9 9 9 9 9 9 9 9 9 9 9 9 9 9 9
12 11 12 12 11 11 11 11 11 11 11 11 11 10 10 10 10 10 9 9 9 9 9 9 9 9 9 9 9 8 8 8 8 8 8 9 9 9 9 9 9 9 9
11 11 11 11 11 11 11 11 11 11 11 11 10 10 10 10 9 9 9 9 9 9 8 8 8 8 8 8 8 8 8 8 8 8 8 8 8 8 8 8 8 8 8
11 11 11 11 11 11 11 10 10 10 10 10 10 9 9 9 9 9 9 8 8 8 8 8 8 8 8 8 8 8 8 8 8 8 8 8 8 8 8 8 8 8 8
10 10 10 10 10 10 10 10 10 10 10 10 9 8 8 8 8 8 8 8 8 7 7 7 7 7 7 7 7 7 7 7 7 7 7 8 8 8 8 8 8 8 7
10 10 10 10 10 10 10 9 9 9 9 9 9 8 8 8 8 8 8 7 7 7 7 7 7 7 7 7 7 7 7 7 7 7 7 7 7 7 7 7 7 7 7
9 9 9 9 9 9 9 9 9 9 9 8 8 8 8 7 7 7 7 7 7 7 6 6 6 6 6 6 6 6 7 7 7 7 7 7 7 7 7 7 7 7 7
8 9 9 9 9 9 9 9 8 8 8 8 8 8 7 7 7 6 6 6 6 6 6 6 6 6 6 6 6 6 6 6 6 6 6 6 6 6 6 6 7 6 6
8 8 8 8 8 8 8 8 8 8 8 7 7 7 7 7 6 6 6 6 6 6 6 6 6 6 6 6 6 6 6 6 6 6 6 6 6 6 6 6 6 6 6
8 8 8 8 8 8 8 8 8 8 7 7 7 7 7 6 6 6 6 5 5 5 6 6 5 5 5 5 5 5 5 5 6 6 6 6 6 6 6 6 6 6 6
7 7 7 7 7 7 7 7 7 7 7 7 6 6 6 6 6 6 6 5 5 5 5 5 5 5 5 5 5 5 5 5 5 5 5 5 6 6 6 6 5 5 5
6 7 7 7 6 6 7 7 7 7 6 6 6 6 6 6 6 6 5 5 4 4 4 5 5 5 5 5 5 5 5 5 5 5 5 5 5 5 5 5 5 5 5
6 6 6 6 6 6 6 6 6 6 6 6 6 6 6 6 6 5 5 5 4 4 4 4 4 5 5 5 5 5 5 5 5 5 5 5 5 5 5 5 5 5 4
6 6 6 6 6 6 6 6 6 6 6 6 5 5 6 5 5 5 5 5 4 4 4 4 4 4 4 4 4 4 4 4 4 4 4 4 4 4 4 4 4 4 4
5 5 5 5 5 5 5 5 5 5 5 5 5 5 5 5 5 5 4 4 4 4 4 4 4 4 4 4 4 4 4 4 4 4 4 4 4 4 4 4 4 4 4
5 5 5 5 5 5 5 5 5 5 5 5 5 5 5 5 5 4 4 4 4 4 4 3 4 3 3 3 3 3 3 3 4 4 4 4 4 4 4 4 4 4 4
4 4 4 4 5 5 4 5 4 4 4 4 4 4 4 4 4 4 4 4 4 4 3 3 3 3 3 3 3 3 3 3 3 3 3 3 3 3 3 3 3 3 3
4 4 4 4 4 4 4 4 4 4 4 4 4 4 4 4 4 4 4 3 3 3 3 3 3 2 3 3 3 2 2 3 3 3 3 3 3 3 3 3 3 3 3
3 3 3 3 4 4 4 3 3 3 3 3 3 3 3 3 3 3 3 3 3 3 3 2 2 2 2 2 2 2 2 2 2 2 2 3 3 3 2 3 3 3 3
3 3 3 3 3 3 3 3 3 3 3 3 3 3 3 3 3 3 3 3 3 2 2 2 2 2 2 2 2 2 2 2 2 2 2 2 2 2 2 2 2 2 2
2 2 2 2 2 2 2 2 2 2 2 2 2 2 2 2 3 2 2 2 2 2 2 2 2 2 2 2 2 2 2 2 2 2 2 2 2 2 2 2 2 2 2
2 2 2 2 2 2 2 2 1 1 1 1 2 2 2 2 2 2 2 2 2 2 2 2 2 2 2 2 2 2 2 1 1 2 1 1 1 2 2 2 2 2 2
1 1 1 1 1 1 1 1 1 1 1 1 1 1 1 1 1 1 1 1 2 2 2 2 2 2 2 2 2 2 2 1 1 1 1 1 1 1 1 2 2 2 2
Wind_Speed
2 2 2 2 2 2 2 2 2 3 2 2 2 2 2 1 1 1 2 5 5 6 6 7 7 8 8 8 9 9 10 10 10 10 10 10 10 10 10 10 10 10 10
2 2 2 2 2 2 2 2 2 2 2 2 2 2 1 1 1 1 1 2 4 5 6 7 7 8 8 9 9 9 10 11 11 11 10 10 10 10 10 10 10 10 10
2 2 2 2 1 2 2 2 2 2 2 2 2 1 1 1 0 1 1 1 2 3 5 7 7 8 8 9 10 10 10 11 11 11 11 11 11 11 10 10 10 10 10
3 2 1 1 1 2 2 2 2 2 2 1 1 1 1 0 0 1 1 1 2 2 3 6 7 8 8 9 10 10 10 11 11 11 11 11 11 11 11 10 10 11 11
3 2 1 1 1 1 1 2 2 1 1 1 1 1 1 1 0 0 1 2 2 3 3 4 5 6 8 9 10 10 10 11 11 10 11 11 11 11 11 11 11 11 11
2 2 2 2 1 1 1 2 2 1 1 1 1 1 1 0 1 0 1 1 2 3 4 4 4 5 6 8 9 10 11 12 11 11 11 12 12 11 11 11 11 11 11
2 2 2 2 2 1 1 2 2 2 1 1 1 0 1 1 1 0 0 1 2 3 4 4 5 5 5 6 8 11 12 12 12 12 12 12 12 11 11 11 11 11 11
2 2 2 2 2 1 1 1 1 2 1 1 1 1 1 2 1 1 1 1 2 3 3 4 5 5 5 6 7 10 11 13 13 12 12 12 12 12 12 12 12 11 11
2 1 1 2 2 2 2 2 2 2 2 2 0 1 1 2 2 2 1 2 3 3 3 4 5 5 6 6 7 8 11 13 13 12 12 12 12 13 12 12 12 11 11
2 1 1 2 2 1 1 1 1 1 2 2 2 1 1 1 2 2 2 2 3 4 4 4 4 5 5 6 7 9 11 12 13 12 12 12 13 13 13 13 12 11 11
1 2 1 1 1 1 1 1 1 1 1 2 2 1 1 1 1 2 3 3 3 3 4 4 4 4 5 6 7 9 11 12 12 12 13 13 13 13 13 14 13 12 12
0 1 0 0 0 0 1 1 1 2 2 2 2 2 2 1 2 2 3 4 4 4 4 4 4 4 5 6 8 9 11 11 11 12 12 13 13 13 13 14 13 12 11
0 1 1 0 1 1 1 1 1 2 3 3 3 2 3 3 2 2 3 3 5 4 3 3 3 4 5 7 7 10 10 10 11 12 12 12 12 12 12 12 12 11 11
1 1 1 0 1 1 1 1 1 1 2 3 3 3 3 3 2 3 2 3 4 4 4 4 3 4 5 7 8 9 9 9 11 11 11 11 11 11 11 11 11 11 10
1 1 1 1 1 1 1 2 1 2 2 3 3 4 3 2 2 3 3 3 3 4 5 4 3 4 6 7 8 8 8 9 11 11 11 11 11 11 10 11 11 10 10
1 1 1 1 1 1 1 2 2 2 2 2 3 4 3 3 3 2 3 4 4 5 5 4 5 6 6 6 8 8 8 9 9 9 10 10 10 10 10 10 10 10 10
1 2 2 2 2 2 2 2 2 2 2 2 2 3 3 3 3 3 3 4 4 4 6 6 5 6 7 6 6 7 8 7 7 8 10 10 9 10 10 10 9 10 10
2 1 1 2 2 2 2 3 2 2 3 3 3 3 3 3 4 3 3 4 4 4 5 7 6 5 6 6 6 6 6 6 7 8 9 9 9 9 9 9 9 9 10
2 1 1 2 2 2 3 3 3 3 3 3 3 4 3 3 3 3 4 4 4 4 4 4 5 5 5 5 6 6 6 6 6 7 8 8 7 8 9 8 8 9 9
2 2 2 2 2 2 3 2 3 3 3 3 3 4 4 3 4 4 4 4 4 4 4 4 4 4 4 5 5 5 5 5 5 6 6 7 7 8 8 7 8 8 9
2 2 2 2 2 2 2 2 3 3 3 3 3 3 3 4 4 4 4 4 4 4 3 3 4 4 4 4 5 5 5 6 5 4 5 5 6 5 5 6 6 7 8
2 2 2 2 2 2 3 4 3 3 3 4 4 4 3 3 4 4 5 5 5 4 4 4 4 5 5 5 5 4 5 5 4 4 5 6 5 5 5 4 6 8 9
3 3 3 3 3 3 3 3 3 3 3 3 4 4 3 3 4 4 4 4 4 5 5 5 6 6 6 5 5 5 5 5 5 5 5 5 4 5 4 5 7 8 9
3 3 3 3 4 3 3 3 3 3 3 3 3 4 4 4 3 4 4 4 4 5 5 5 6 6 6 5 5 5 5 5 5 4 3 4 4 5 5 5 6 7 8
3 3 3 3 4 3 3 3 2 2 3 4 3 4 4 4 4 4 4 5 5 5 5 6 7 7 6 5 4 3 3 3 4 3 2 2 3 5 5 4 4 7 8
3 3 3 3 4 3 3 3 3 2 3 3 3 3 4 5 4 4 4 5 5 6 6 6 6 5 4 3 3 3 3 3 3 2 1 2 2 3 3 3 4 5 6
Wind_Direction
143 140 135 135 152 151 148 148 148 138 137 131 133 134 130 116 95 78 82 59 37 22 9 2 358 353 354 354 353 352 351 347 341 334 329 326 321 315 311 306 306 305 302
152 153 145 145 137 149 156 162 153 150 143 137 140 142 137 122 95 75 61 70 52 28 13 6 0 357 358 357 354 353 349 344 342 339 335 332 327 323 316 308 306 305 302
125 151 147 143 138 142 153 158 152 149 135 138 149 140 128 105 80 55 43 16 26 40 24 12 6 1 358 356 352 350 347 344 343 341 338 334 329 325 320 313 308 305 301
104 107 133 138 146 150 153 157 158 154 143 151 161 162 163 137 301 355 25 24 12 6 15 16 6 1 359 357 354 350 346 343 342 339 336 332 329 325 321 319 314 307 303
113 118 103 113 150 152 149 159 166 161 155 149 153 182 205 206 254 353 14 29 17 2 355 4 2 6 2 358 354 349 345 341 340 338 336 333 329 324 321 317 315 311 307
116 124 122 106 115 153 154 160 157 141 142 147 172 197 210 220 231 274 356 17 5 3 1 356 352 353 356 352 350 348 345 342 340 338 335 332 328 324 321 318 316 313 310
98 102 96 113 113 135 160 160 151 150 124 132 169 210 205 208 253 294 304 332 353 359 355 353 348 342 335 342 347 346 343 341 339 335 333 331 326 322 320 320 319 316 314
85 98 112 121 127 136 146 160 161 179 146 157 224 223 233 216 220 273 284 308 325 337 342 343 340 342 336 333 341 343 340 340 337 332 331 331 328 324 321 320 322 320 319
60 84 116 114 122 140 151 175 191 201 190 175 179 262 251 251 281 233 280 293 316 319 325 331 330 336 334 332 333 340 340 338 335 330 331 332 329 325 323 321 322 322 318
58 52 81 107 123 130 149 172 187 209 213 210 203 258 311 328 267 269 249 282 310 309 314 320 318 323 329 329 331 338 341 339 337 335 334 333 329 326 326 324 322 322 320
64 32 81 113 136 141 140 151 187 192 215 229 225 221 228 263 269 269 275 288 295 297 304 306 304 311 318 321 322 333 338 336 337 337 335 332 328 327 325 324 322 321 320
89 22 9 1 175 119 164 184 210 211 213 227 238 235 229 223 243 258 275 284 288 292 295 292 296 304 313 316 319 330 330 329 332 334 333 332 329 326 325 326 324 320 321
277 321 312 318 318 293 237 217 218 229 224 228 234 242 243 247 242 257 273 288 295 296 289 284 295 300 309 314 317 326 324 325 328 330 330 331 331 329 329 329 331 326 325
245 276 273 253 292 302 279 246 221 231 241 237 238 243 247 255 250 248 262 280 292 288 286 293 296 291 309 311 317 319 321 325 328 328 330 334 335 334 334 335 335 332 330
264 230 239 217 226 261 272 261 249 240 248 246 244 246 250 254 257 258 253 251 262 282 286 283 299 298 308 310 313 314 316 324 324 325 329 333 334 332 334 336 334 334 335
242 236 258 239 224 223 243 255 261 259 256 262 253 244 247 254 255 260 255 254 257 263 274 286 297 307 306 305 310 311 311 317 319 324 327 329 330 331 333 334 339 343 342
233 236 237 230 224 226 234 242 256 255 261 269 266 254 251 257 262 261 261 254 255 260 273 291 298 308 307 306 311 312 313 314 317 321 325 327 328 329 332 336 343 344 341
234 231 247 235 229 233 237 240 251 262 262 262 264 265 266 269 266 267 266 266 261 264 272 285 301 307 307 305 308 311 314 312 316 319 322 325 326 328 331 333 338 341 341
233 219 243 249 239 236 237 240 246 253 262 264 265 265 269 271 277 274 273 272 273 278 277 280 293 307 308 307 313 314 313 314 319 323 323 326 325 323 325 328 335 340 340
233 223 235 255 244 235 231 243 250 253 264 266 267 269 270 269 274 282 277 274 277 282 282 278 290 301 308 313 314 318 317 321 321 321 325 321 320 321 322 325 331 337 339
243 239 233 251 241 234 233 250 257 256 269 272 268 268 271 278 286 287 285 285 282 278 279 284 289 298 306 316 308 308 305 315 315 319 323 320 321 321 321 325 332 338 338
249 242 239 253 238 240 260 250 260 262 265 268 273 274 278 271 282 290 291 295 290 273 273 277 282 286 290 297 301 299 303 311 309 315 313 311 316 314 317 322 328 332 334
248 246 249 259 249 250 259 250 256 268 263 266 272 277 280 281 287 282 287 289 289 287 277 271 271 279 284 283 282 283 287 298 294 302 304 294 304 303 305 314 319 325 329
254 250 254 268 259 254 260 254 257 262 261 267 272 274 271 275 280 293 289 283 285 287 283 279 278 282 283 279 268 271 278 292 303 299 298 281 299 303 306 301 308 315 320
268 261 257 267 262 258 258 262 274 265 264 271 274 273 275 274 285 297 290 287 291 296 299 292 293 289 289 287 282 279 277 287 301 302 295 281 297 309 299 292 307 316 319
278 273 266 272 263 261 263 262 271 265 272 279 277 273 272 280 289 292 285 285 289 299 307 304 297 295 293 278 262 256 256 269 296 282 269 290 296 317 301 296 315 317 315
Height
1533 1534 1535 1535 1536 1536 1536 1537 1537 1537 1537 1536 1536 1536 1536 1536 1535 1535 1534 1533 1532 1530 1529 1528 1526 1525 1523 1521 1520 1518 1516 1514 1512 1511 1509 1507 1505 1504 1502 1501 1499 1498 1497
1532 1533 1534 1534 1534 1535 1535 1535 1536 1536 1536 1536 1535 1535 1535 1535 1534 1534 1533 1532 1530 1529 1528 1526 1525 1523 1521 1520 1518 1516 1514 1512 1510 1508 1506 1505 1503 1501 1499 1498 1496 1495 1494
1530 1531 1532 1533 1533 1533 1534 1534 1535 1535 1535 1534 1534 1534 1534 1533 1533 1533 1532 1531 1529 1528 1526 1525 1523 1521 1520 1518 1516 1514 1512 1510 1508 1506 1504 1502 1500 1498 1497 1495 1493 1492 1491
1529 1530 1531 1531 1532 1532 1533 1533 1533 1533 1533 1533 1533 1533 1533 1532 1532 1531 1530 1529 1528 1527 1525 1523 1521 1519 1518 1516 1513 1511 1509 1507 1505 1503 1501 1500 1498 1496 1494 1492 1491 1489 1488
1528 1528 1529 1530 1530 1531 1531 1531 1532 1532 1532 1531 1531 1531 1531 1531 1530 1530 1529 1528 1526 1525 1524 1522 1520 1518 1516 1514 1512 1509 1507 1505 1503 1501 1499 1497 1495 1493 1491 1490 1488 1487 1485
1526 1527 1527 1528 1529 1529 1529 1530 1530 1530 1530 1530 1530 1530 1530 1530 1529 1528 1527 1526 1525 1524 1522 1520 1518 1516 1514 1512 1510 1507 1505 1503 1501 1499 1497 1494 1492 1491 1489 1487 1485 1484 1482
1524 1525 1525 1525 1526 1527 1527 1528 1528 1529 1529 1529 1529 1529 1529 1528 1528 1527 1526 1525 1524 1522 1520 1518 1517 1514 1512 1510 1508 1505 1503 1500 1498 1496 1494 1492 1490 1488 1486 1484 1482 1481 1479
1522 1522 1523 1523 1524 1525 1524 1525 1526 1526 1527 1527 1527 1527 1528 1528 1526 1525 1524 1523 1522 1520 1519 1517 1515 1513 1510 1508 1505 1503 1501 1498 1496 1493 1491 1489 1487 1485 1483 1481 1479 1477 1476
1520 1520 1521 1521 1522 1523 1522 1523 1524 1524 1525 1525 1526 1527 1527 1526 1524 1523 1522 1521 1520 1519 1517 1515 1513 1511 1509 1506 1503 1501 1498 1496 1493 1491 1489 1486 1484 1482 1480 1478 1476 1474 1473
1518 1519 1519 1519 1520 1520 1521 1521 1521 1522 1523 1523 1523 1524 1524 1523 1523 1521 1520 1519 1518 1516 1515 1513 1511 1509 1507 1504 1501 1499 1496 1493 1491 1489 1486 1484 1482 1480 1477 1475 1473 1471 1469
1517 1517 1517 1517 1518 1518 1518 1518 1519 1519 1520 1521 1521 1521 1521 1521 1520 1519 1518 1516 1515 1514 1512 1510 1508 1506 1504 1502 1499 1497 1494 1491 1488 1486 1484 1481 1479 1477 1474 1472 1470 1467 1465
1515 1515 1515 1515 1516 1516 1516 1516 1517 1517 1517 1518 1518 1518 1518 1518 1517 1517 1515 1513 1512 1511 1509 1508 1506 1504 1502 1499 1497 1494 1491 1489 1486 1484 1481 1478 1476 1473 1471 1469 1466 1464 1462
1513 1513 1513 1513 1514 1514 1514 1514 1514 1515 1515 1515 1515 1515 1515 1515 1515 1514 1513 1512 1510 1508 1506 1505 1503 1501 1499 1497 1494 1492 1489 1486 1484 1481 1478 1475 1473 1470 1468 1465 1463 1461 1459
1510 1511 1511 1511 1512 1512 1512 1512 1512 1512 1512 1513 1513 1513 1513 1513 1512 1512 1511 1510 1508 1506 1504 1503 1500 1499 1496 1494 1491 1489 1486 1483 1481 1478 1476 1473 1470 1467 1465 1463 1460 1458 1456
1509 1509 1509 1509 1510 1510 1510 1510 1510 1510 1510 1510 1510 1510 1510 1510 1509 1509 1508 1508 1507 1504 1501 1499 1498 1495 1493 1491 1488 1486 1483 1481 1478 1476 1473 1470 1467 1465 1462 1460 1458 1456 1453
1507 1507 1507 1507 1507 1507 1507 1508 1508 1507 1507 1507 1507 1507 1507 1507 1506 1506 1505 1505 1504 1503 1499 1496 1495 1493 1490 1488 1486 1483 1481 1478 1476 1473 1470 1468 1465 1463 1460 1458 1456 1453 1451
1505 1505 1504 1505 1505 1505 1505 1505 1505 1505 1505 1504 1504 1504 1504 1504 1503 1503 1502 1501 1500 1499 1496 1493 1492 1490 1488 1485 1483 1481 1478 1475 1473 1470 1468 1465 1463 1460 1458 1456 1454 1451 1449
1502 1502 1502 1502 1502 1502 1502 1502 1502 1502 1502 1502 1501 1501 1500 1500 1500 1499 1499 1498 1497 1495 1494 1491 1488 1487 1484 1482 1480 1478 1475 1473 1470 1468 1465 1463 1460 1458 1456 1454 1451 1449 1446
1499 1499 1499 1499 1499 1499 1499 1499 1499 1499 1499 1499 1498 1498 1497 1497 1496 1496 1495 1494 1493 1492 1490 1488 1485 1484 1482 1480 1477 1475 1473 1470 1468 1465 1463 1461 1458 1456 1454 1451 1449 1446 1444
1496 1496 1496 1496 1496 1496 1496 1496 1496 1496 1496 1496 1495 1494 1494 1494 1493 1492 1491 1491 1490 1488 1487 1485 1482 1480 1479 1477 1475 1472 1469 1467 1465 1463 1460 1458 1456 1453 1451 1449 1446 1444 1441
1492 1492 1492 1493 1493 1493 1493 1492 1493 1492 1492 1492 1492 1491 1491 1490 1490 1489 1488 1487 1486 1484 1483 1481 1479 1477 1475 1473 1472 1470 1467 1465 1462 1460 1458 1456 1453 1451 1448 1446 1444 1441 1439
1489 1489 1489 1489 1489 1489 1489 1489 1489 1489 1488 1488 1488 1487 1487 1486 1486 1485 1485 1484 1483 1481 1479 1478 1476 1474 1472 1471 1469 1467 1465 1463 1460 1459 1456 1453 1451 1449 1447 1444 1442 1439 1437
1486 1486 1486 1486 1486 1486 1486 1486 1485 1485 1485 1485 1485 1484 1483 1483 1482 1481 1481 1480 1479 1478 1477 1475 1473 1471 1469 1468 1466 1464 1463 1461 1459 1456 1454 1450 1449 1447 1445 1442 1440 1437 1435
1483 1483 1483 1482 1482 1482 1482 1482 1482 1482 1481 1481 1481 1480 1480 1479 1479 1478 1477 1476 1475 1474 1473 1471 1469 1468 1466 1465 1463 1462 1460 1458 1456 1455 1452 1449 1446 1444 1442 1440 1438 1435 1433
1480 1480 1480 1479 1479 1479 1479 1479 1478 1478 1478 1478 1477 1477 1476 1476 1475 1474 1473 1472 1470 1470 1469 1467 1466 1464 1463 1461 1460 1459 1457 1455 1453 1451 1450 1447 1444 1442 1439 1438 1435 1433 1430
1477 1477 1476 1476 1476 1475 1475 1475 1475 1475 1474 1474 1474 1473 1473 1472 1472 1470 1469 1468 1466 1466 1465 1463 1462 1461 1459 1458 1457 1456 1454 1452 1450 1448 1447 1445 1443 1440 1437 1435 1433 1430 1428